Theta_e
287 286 285 284 283 282 281 281 280 280 279 279 278 278 277 277 276 276 275 275 275 274 275 274 274 275 273 273 274 273 273 272 269 271 273 273 273 273 275 275 276 275 276
286 285 284 283 282 281 280 280 280 279 279 278 278 278 277 276 275 275 275 275 274 274 274 274 273 275 272 272 272 272 272 272 271 269 271 272 272 274 274 274 275 277 276
286 285 283 282 281 280 280 279 279 278 278 278 278 277 276 276 276 275 275 275 274 273 273 273 273 273 272 272 271 271 271 273 272 270 270 273 273 274 274 275 275 275 276
285 284 283 281 281 280 279 279 278 278 277 277 277 276 275 275 275 276 275 274 273 273 273 273 272 272 272 271 272 272 272 271 272 271 270 271 273 274 273 272 271 274 273
284 283 282 281 280 280 279 279 278 277 277 277 276 275 275 275 276 275 275 274 273 273 273 273 273 273 275 274 273 272 272 270 271 271 271 272 271 271 270 272 271 271 272
283 282 282 281 280 279 279 278 277 277 276 276 276 275 274 275 280 280 276 274 274 273 272 272 272 272 273 275 276 277 277 271 264 265 271 269 270 271 272 270 270 269 267
282 282 281 280 279 279 278 277 277 276 277 276 275 275 274 274 282 281 279 275 274 272 272 272 272 273 272 272 273 276 277 278 278 275 268 270 270 272 271 270 270 269 268
282 281 281 280 280 278 278 277 277 277 276 275 275 275 274 274 282 282 280 275 273 273 272 272 272 272 272 272 272 272 273 273 275 274 273 273 274 274 272 271 270 268 268
281 281 281 281 280 278 278 277 277 276 275 275 275 275 274 274 282 282 280 274 273 272 272 272 271 271 273 276 274 273 272 272 275 277 277 277 277 276 274 271 265 265 264
282 282 282 282 281 279 278 277 277 277 276 275 275 275 275 274 280 282 280 274 272 272 272 272 275 272 275 277 274 269 267 269 271 267 269 269 271 270 273 270 268 264 264
283 282 282 282 281 280 279 278 277 276 275 274 274 274 274 273 273 281 281 274 271 270 270 270 272 276 277 278 279 271 269 273 266 264 265 266 267 268 268 269 270 268 265
283 282 282 282 281 280 279 278 277 276 275 274 273 272 272 271 273 278 281 280 276 268 268 270 271 276 277 278 278 278 278 274 259 257 258 263 265 266 267 268 269 269 269
283 283 282 282 282 281 279 277 276 275 275 273 272 273 271 269 269 276 278 280 280 274 271 272 275 277 277 277 275 276 270 261 259 256 261 263 265 266 267 267 267 268 268
282 282 282 281 280 280 279 278 276 274 274 273 271 272 271 267 267 268 269 271 276 277 276 275 276 275 276 274 267 269 265 263 261 261 262 264 265 264 263 265 264 264 264
279 277 277 278 278 276 277 276 275 275 276 273 273 274 268 266 268 270 269 265 266 268 264 259 261 262 265 266 264 263 263 263 261 261 261 261 262 263 263 264 263 262 261
272 272 274 272 272 272 271 266 278 276 278 279 276 270 263 271 275 276 276 276 275 275 269 263 264 267 267 267 265 263 262 262 263 262 260 261 261 261 261 262 262 260 261
272 270 270 270 270 269 269 269 267 268 277 278 278 277 276 271 276 276 277 278 278 277 274 272 269 267 266 265 264 262 261 262 263 261 261 260 260 260 259 259 260 260 260
266 267 269 268 268 267 268 268 268 267 267 262 275 277 278 277 276 277 277 278 274 275 267 264 264 264 264 262 261 261 260 261 260 260 259 259 257 257 258 257 258 258 259
264 264 263 262 261 263 262 262 262 262 263 262 258 267 267 278 278 278 275 264 264 262 261 262 261 261 261 260 260 259 259 258 258 257 255 256 256 256 257 257 258 258 259
259 262 262 261 260 260 261 261 260 261 261 263 264 264 258 259 257 260 261 262 261 259 259 258 258 257 256 254 253 253 252 249 250 252 255 256 256 257 257 258 258 258 258
259 260 261 259 260 260 260 260 260 260 259 258 256 259 267 260 260 261 261 260 256 254 253 251 249 248 246 246 245 245 247 252 253 255 256 256 256 255 257 258 257 257 257
257 256 255 256 255 257 255 257 257 257 257 258 255 258 271 261 259 258 256 256 251 249 250 248 247 246 248 247 249 250 252 254 252 254 256 256 255 255 254 255 253 255 256
257 256 255 253 254 255 255 253 255 255 255 254 256 259 259 257 256 255 249 251 252 251 247 244 244 246 247 249 250 253 253 254 253 255 255 254 254 254 253 251 251 252 254
255 255 255 254 254 255 255 254 255 256 258 257 257 257 256 255 253 252 253 251 249 248 243 243 244 247 248 249 249 250 252 253 252 254 253 253 253 253 250 247 250 251 253
254 255 255 255 255 255 256 255 257 256 256 256 256 256 255 255 255 254 253 251 248 247 248 246 246 247 248 249 249 248 249 255 255 255 252 251 251 251 246 245 249 251 252
253 254 253 253 255 257 256 257 257 257 256 256 257 256 256 255 254 253 249 248 249 249 247 246 247 247 248 249 249 251 254 257 256 256 254 251 250 248 245 247 248 251 253
Wind_Speed
13 13 13 12 10 10 10 10 10 10 10 10 10 10 9 9 7 7 5 6 7 6 5 6 6 5 3 3 2 2 1 1 3 4 3 7 8 10 10 10 11 10 10
14 14 15 14 14 14 13 12 10 11 9 10 10 10 9 8 7 8 7 6 7 7 5 6 6 4 4 3 2 2 2 2 2 8 7 6 9 10 11 12 10 9 11
13 14 14 14 14 14 13 11 11 11 9 9 9 10 9 8 7 6 6 6 6 5 5 5 5 5 4 3 3 2 1 2 3 4 8 7 8 8 11 11 11 11 10
14 14 14 14 13 12 12 11 11 11 11 10 8 8 8 8 7 7 8 7 6 5 5 4 4 4 5 4 3 2 1 2 3 5 6 9 8 9 8 11 12 9 12
13 14 15 13 12 12 11 11 10 9 8 9 8 7 7 7 7 8 7 6 6 5 4 5 4 4 5 5 2 2 3 3 4 5 6 7 8 9 10 9 12 12 11
14 13 12 12 12 12 11 10 11 9 8 9 8 9 9 5 14 14 10 7 6 6 5 5 4 5 4 3 4 6 6 4 3 2 5 7 10 9 9 10 11 12 10
14 13 13 14 13 12 12 12 11 11 10 9 9 9 8 6 16 14 13 5 6 5 5 5 5 4 4 3 5 9 10 14 13 7 5 7 11 9 11 13 12 11 12
15 14 15 15 14 13 14 14 12 10 10 10 9 8 7 6 15 15 14 5 5 6 5 5 5 4 4 3 5 7 9 8 8 5 8 9 7 10 8 9 11 11 11
15 15 16 17 16 15 15 14 11 10 9 9 9 9 9 5 17 17 14 7 7 7 6 6 5 5 6 7 6 7 5 4 9 14 13 16 20 20 15 8 6 9 11
15 16 15 16 16 15 14 14 11 10 9 8 8 8 8 8 17 19 15 6 6 5 6 6 12 7 9 11 7 4 4 6 5 1 4 8 10 11 16 8 7 8 9
12 12 12 13 14 13 12 10 11 10 8 9 8 7 8 8 9 20 20 7 7 6 6 5 5 11 11 13 14 6 6 6 1 1 3 4 6 6 6 6 8 8 8
13 13 12 13 11 11 14 11 10 11 10 9 8 6 6 7 13 20 21 19 13 6 7 5 4 12 13 15 13 10 12 10 1 2 2 4 5 6 7 7 10 10 9
13 15 14 14 13 13 15 13 10 11 11 10 9 8 7 7 6 20 19 20 20 10 6 9 13 14 16 14 6 9 1 1 1 1 4 5 5 6 9 9 9 11 11
12 12 11 12 12 11 10 10 10 11 10 9 9 8 7 6 7 7 5 6 15 12 10 7 10 11 11 8 1 4 1 2 2 3 5 5 5 5 7 6 7 8 9
10 8 9 9 11 10 10 11 12 12 14 12 11 10 9 8 9 12 12 7 6 7 3 1 0 1 4 5 4 4 3 2 4 3 4 5 6 6 6 6 6 7 7
8 7 8 8 8 8 7 2 14 9 16 15 11 9 2 6 13 17 18 17 18 17 5 4 5 7 8 7 5 3 3 5 5 4 3 4 6 5 7 7 7 6 8
9 8 6 6 7 8 7 8 7 5 12 15 13 12 14 11 14 12 14 16 17 16 9 9 7 7 7 6 4 3 4 5 4 4 4 5 5 5 6 7 7 7 7
6 7 7 7 7 6 7 7 6 8 7 2 12 11 14 14 13 15 14 14 7 7 1 2 3 2 2 2 2 3 4 3 4 4 4 4 4 5 6 6 6 7 8
5 4 4 3 3 4 4 4 5 5 5 4 1 2 3 13 7 10 4 3 2 1 1 0 2 2 3 3 3 4 4 4 4 3 3 4 5 4 6 6 7 9 10
4 8 5 5 4 4 4 5 5 5 6 7 6 6 3 4 2 2 2 2 2 2 2 3 3 2 2 2 2 2 3 3 4 4 6 5 5 5 6 6 6 7 7
4 4 6 4 5 5 5 5 4 4 4 3 2 3 9 3 3 2 2 2 2 2 3 3 2 3 3 3 3 3 4 5 5 6 6 5 5 5 5 6 6 7 7
4 4 3 4 3 3 3 4 4 4 5 5 3 2 7 4 3 3 2 2 2 2 2 3 3 3 4 4 4 4 4 6 4 6 6 6 5 5 5 6 5 7 7
5 5 4 3 3 5 4 3 4 4 4 4 3 3 2 3 2 3 3 2 2 3 2 2 3 4 4 5 5 5 5 6 6 6 6 5 5 6 5 6 5 6 6
4 4 5 4 3 4 4 4 3 4 4 4 4 4 3 3 3 3 2 3 3 2 2 3 4 6 5 5 4 5 5 6 4 6 7 6 7 6 5 4 6 7 8
5 5 5 5 5 5 5 4 4 3 3 3 3 2 2 2 2 3 3 3 2 1 4 4 4 6 8 9 8 8 8 12 9 8 5 7 8 8 5 4 6 7 8
4 4 4 4 4 3 4 4 3 3 3 3 3 3 2 3 3 3 2 1 3 4 5 4 5 9 9 8 9 10 11 13 11 12 8 7 7 6 5 7 9 7 8
Wind_Direction
163 161 159 158 150 150 152 154 154 145 145 144 142 138 137 134 129 118 117 127 119 117 116 118 115 114 105 106 106 96 143 197 251 274 291 310 309 316 317 315 313 310 309
166 162 164 160 159 161 161 159 153 150 152 150 144 140 143 143 135 134 143 146 138 133 127 119 122 129 128 132 125 170 215 233 241 300 307 321 319 315 311 314 316 308 311
164 162 164 166 165 166 162 157 155 151 149 144 144 150 147 144 144 137 137 133 128 136 140 133 145 143 143 166 191 194 227 281 251 269 290 309 309 319 320 316 320 316 310
165 169 170 171 169 166 158 156 156 157 153 152 153 146 144 142 145 147 145 137 139 138 136 142 155 159 168 176 195 194 244 267 271 272 286 305 318 325 315 320 320 320 317
172 172 173 165 161 155 157 158 148 149 150 150 142 136 140 156 163 154 144 148 143 139 155 176 174 182 192 190 165 209 246 255 269 274 301 308 316 324 320 320 313 315 315
171 174 163 158 155 156 154 152 147 145 146 147 155 156 158 167 173 166 152 152 159 162 174 193 177 204 207 220 276 285 262 229 220 254 291 305 309 311 311 316 313 320 322
171 165 160 156 159 159 151 151 159 163 159 163 160 159 168 162 178 172 169 159 167 182 184 183 198 207 192 222 291 287 288 292 281 301 296 289 297 307 310 313 313 306 301
173 165 160 160 160 159 158 165 163 166 171 169 169 168 160 183 185 188 180 171 178 196 190 194 203 206 211 207 244 258 258 255 258 274 268 274 277 301 298 305 303 303 293
173 170 165 166 166 167 170 171 164 162 172 181 174 170 172 168 197 198 187 175 201 207 205 205 208 214 228 251 257 262 253 250 275 286 291 308 309 311 311 316 307 312 310
177 175 171 171 168 172 170 168 170 177 179 175 174 179 175 178 204 205 194 181 196 206 218 220 225 212 237 250 254 221 231 261 264 332 306 297 304 298 309 304 301 300 308
165 162 163 166 167 167 167 172 168 173 164 178 181 173 177 185 206 212 212 192 203 204 216 219 218 240 253 261 264 172 214 269 17 251 266 295 294 289 291 293 299 296 295
146 150 158 166 169 171 179 179 177 173 176 180 182 179 197 194 200 220 218 219 210 199 215 213 214 243 254 261 264 247 283 326 27 342 331 299 297 301 298 301 298 292 283
163 176 180 179 180 178 181 179 175 182 187 189 193 201 201 196 202 217 225 229 233 217 205 223 231 239 250 259 265 275 312 97 305 332 287 283 284 294 300 301 296 296 293
170 176 174 177 176 178 184 185 188 191 192 188 194 206 207 185 199 203 220 229 243 239 228 229 228 239 247 275 269 280 191 205 213 247 270 282 293 294 291 296 303 308 306
158 158 166 174 176 177 188 186 193 199 196 190 201 202 185 200 213 205 198 200 216 219 165 91 219 231 250 250 230 213 217 233 246 242 261 276 283 289 289 300 297 304 292
140 152 164 158 170 174 170 129 212 201 208 208 191 176 188 180 200 209 212 216 221 223 221 210 227 235 240 241 231 222 205 231 238 235 233 262 280 289 295 299 297 290 292
160 160 159 156 168 168 171 178 176 230 202 208 203 198 200 205 209 208 211 216 218 220 227 226 229 220 229 225 220 215 242 228 224 232 256 264 276 281 293 289 293 294 294
127 148 163 168 167 167 179 185 174 178 178 190 213 197 200 197 203 209 210 216 224 240 173 174 200 205 222 218 215 233 238 237 235 241 247 253 252 264 279 279 284 286 295
147 147 135 124 126 136 134 142 153 155 161 160 105 135 296 219 205 198 127 108 139 163 54 249 218 223 225 226 233 231 232 242 243 236 230 246 253 240 263 264 275 284 289
127 143 140 142 139 140 154 161 164 172 173 184 183 177 141 92 123 150 127 133 163 201 225 223 233 217 213 216 225 232 248 257 252 241 245 242 245 239 259 269 277 286 289
138 134 147 133 159 161 166 175 169 164 165 160 177 165 175 134 159 159 173 177 171 195 204 192 221 236 237 230 229 239 234 249 244 248 248 246 241 248 249 261 276 279 279
121 124 113 140 130 135 147 141 146 152 157 156 154 187 191 104 115 138 163 200 210 207 220 207 237 228 223 212 221 225 235 251 239 247 253 246 245 249 248 260 261 274 278
126 130 129 126 138 136 129 125 126 116 111 101 108 128 119 124 143 165 198 221 234 252 242 211 230 261 237 236 224 224 241 250 237 241 248 241 249 252 237 251 258 271 274
98 108 114 108 103 106 113 110 99 103 120 132 146 151 163 175 181 199 214 230 233 236 233 237 233 241 256 251 238 234 234 249 236 246 232 243 252 254 238 233 251 258 268
107 111 115 125 126 128 120 113 118 114 118 144 164 171 167 175 218 233 240 254 256 255 266 246 236 246 257 259 256 250 244 262 259 241 224 226 243 242 228 223 250 262 262
87 91 96 96 98 110 119 130 140 146 154 159 169 187 200 217 235 246 242 253 253 247 250 246 249 254 261 257 255 256 257 260 254 247 228 222 233 238 222 236 242 246 259